| time (UTC) | temp F | wind direction | speed MPH | gust MPH | rain 1hr in | rain 24hr in | rain mn in | humidity % | barometer mb |
| 20260510051147 | 64 | 186 | 2.0 | 2.0 | 0.00 | 0.00 | 0.00 | 66 | 1010.6 |
| 20260510050644 | 64 | 170 | 0.0 | 0.0 | 0.00 | 0.00 | 0.00 | 67 | 1010.6 |
| 20260510050141 | 63 | 159 | 0.0 | 1.0 | 0.00 | 0.00 | 0.00 | 67 | 1010.7 |
| 20260510045638 | 64 | 197 | 1.0 | 2.0 | 0.00 | 0.00 | 0.00 | 67 | 1010.6 |
| 20260510045134 | 64 | 175 | 0.0 | 1.0 | 0.00 | 0.00 | 0.00 | 66 | 1010.8 |
| 20260510044630 | 64 | 191 | 1.0 | 2.0 | 0.00 | 0.00 | 0.00 | 66 | 1010.8 |
| 20260510044128 | 63 | 193 | 0.0 | 1.0 | 0.00 | 0.00 | 0.00 | 66 | 1010.8 |
| 20260510043624 | 63 | 194 | 0.0 | 1.0 | 0.00 | 0.00 | 0.00 | 66 | 1010.8 |
| 20260510043121 | 64 | 184 | 0.0 | 1.0 | 0.00 | 0.00 | 0.00 | 66 | 1010.8 |
| 20260510042618 | 63 | 200 | 0.0 | 0.0 | 0.00 | 0.00 | 0.00 | 66 | 1010.6 |
| 20260510042114 | 63 | 255 | 0.0 | 0.0 | 0.00 | 0.00 | 0.00 | 67 | 1010.7 |
| 20260510041611 | 63 | 174 | 0.0 | 0.0 | 0.00 | 0.00 | 0.00 | 67 | 1010.7 |
| 20260510041108 | 63 | 174 | 0.0 | 0.0 | 0.00 | 0.00 | 0.00 | 66 | 1010.8 |
| 20260510040606 | 63 | 134 | 0.0 | 0.0 | 0.00 | 0.00 | 0.00 | 67 | 1010.8 |
| 20260510035558 | 63 | 268 | 0.0 | 0.0 | 0.00 | 0.23 | 0.23 | 67 | 1010.6 |
| 20260510035058 | 63 | 192 | 0.0 | 0.0 | 0.00 | 0.23 | 0.23 | 67 | 1010.5 |
| 20260510034556 | 63 | 192 | 0.0 | 0.0 | 0.00 | 0.23 | 0.23 | 66 | 1010.6 |
| 20260510034053 | 64 | 192 | 0.0 | 0.0 | 0.00 | 0.23 | 0.23 | 65 | 1010.6 |
| 20260510033549 | 64 | 192 | 0.0 | 0.0 | 0.00 | 0.23 | 0.23 | 65 | 1010.7 |
| 20260510033047 | 64 | 192 | 0.0 | 0.0 | 0.00 | 0.23 | 0.23 | 65 | 1010.6 |
| 20260510032543 | 64 | 224 | 0.0 | 0.0 | 0.00 | 0.23 | 0.23 | 65 | 1010.5 |
| 20260510032039 | 63 | 224 | 0.0 | 0.0 | 0.00 | 0.23 | 0.23 | 65 | 1010.6 |
| 20260510031539 | 63 | 224 | 0.0 | 0.0 | 0.00 | 0.23 | 0.23 | 65 | 1010.5 |
| 20260510031035 | 63 | 224 | 0.0 | 0.0 | 0.00 | 0.23 | 0.23 | 66 | 1010.5 |
| 20260510030531 | 63 | 224 | 0.0 | 0.0 | 0.00 | 0.23 | 0.23 | 66 | 1010.6 |
| 20260510030028 | 62 | 224 | 0.0 | 0.0 | 0.00 | 0.23 | 0.23 | 68 | 1010.5 |
| 20260510025525 | 63 | 224 | 0.0 | 0.0 | 0.00 | 0.23 | 0.23 | 67 | 1010.3 |
| 20260510025023 | 63 | 224 | 0.0 | 0.0 | 0.00 | 0.23 | 0.23 | 67 | 1010.3 |
| 20260510024520 | 64 | 224 | 0.0 | 0.0 | 0.00 | 0.23 | 0.23 | 66 | 1010.3 |
| 20260510024015 | 64 | 225 | 0.0 | 0.0 | 0.00 | 0.23 | 0.23 | 64 | 1010.3 |
| 20260510023511 | 65 | 225 | 0.0 | 0.0 | 0.00 | 0.23 | 0.23 | 63 | 1010.1 |
| 20260510023009 | 65 | 225 | 0.0 | 0.0 | 0.00 | 0.23 | 0.23 | 62 | 1010.3 |
| 20260510022508 | 65 | 221 | 0.0 | 0.0 | 0.00 | 0.23 | 0.23 | 61 | 1010.4 |
| 20260510022008 | 65 | 182 | 0.0 | 0.0 | 0.00 | 0.23 | 0.23 | 61 | 1010.0 |
| 20260510021505 | 65 | 199 | 0.0 | 1.0 | 0.00 | 0.23 | 0.23 | 61 | 1010.0 |
| 20260510021002 | 66 | 199 | 0.0 | 0.0 | 0.00 | 0.23 | 0.23 | 60 | 1010.0 |
| 20260510020456 | 66 | 199 | 0.0 | 0.0 | 0.00 | 0.23 | 0.23 | 59 | 1009.9 |
| 20260510015952 | 67 | 199 | 0.0 | 0.0 | 0.00 | 0.23 | 0.23 | 58 | 1009.9 |
| 20260510015448 | 67 | 199 | 0.0 | 0.0 | 0.00 | 0.23 | 0.23 | 57 | 1009.7 |
| 20260510014943 | 67 | 222 | 0.0 | 1.0 | 0.00 | 0.23 | 0.23 | 57 | 1009.7 |
| 20260510014441 | 67 | 190 | 0.0 | 1.0 | 0.00 | 0.23 | 0.23 | 57 | 1009.6 |
| 20260510013938 | 67 | 191 | 0.0 | 1.0 | 0.00 | 0.23 | 0.23 | 57 | 1009.5 |
| 20260510013432 | 67 | 187 | 0.0 | 1.0 | 0.00 | 0.23 | 0.23 | 57 | 1009.3 |
| 20260510012928 | 68 | 187 | 0.0 | 1.0 | 0.00 | 0.23 | 0.23 | 57 | 1009.2 |
| 20260510012423 | 68 | 162 | 0.0 | 1.0 | 0.00 | 0.23 | 0.23 | 56 | 1009.3 |
| 20260510011918 | 68 | 271 | 0.0 | 0.0 | 0.00 | 0.23 | 0.23 | 58 | 1009.2 |
| 20260510011413 | 68 | 208 | 0.0 | 0.0 | 0.00 | 0.23 | 0.23 | 57 | 1009.3 |
| 20260510010910 | 68 | 197 | 0.0 | 0.0 | 0.00 | 0.23 | 0.23 | 57 | 1009.2 |
| 20260510010408 | 68 | 197 | 0.0 | 0.0 | 0.00 | 0.23 | 0.23 | 56 | 1009.1 |
| 20260510005904 | 69 | 197 | 0.0 | 0.0 | 0.00 | 0.23 | 0.23 | 56 | 1009.0 |
| 20260510005400 | 69 | 194 | 0.0 | 1.0 | 0.00 | 0.23 | 0.23 | 55 | 1008.9 |
| 20260510004858 | 69 | 201 | 0.0 | 1.0 | 0.00 | 0.23 | 0.23 | 55 | 1008.9 |
| 20260510004355 | 70 | 319 | 0.0 | 0.0 | 0.00 | 0.23 | 0.23 | 53 | 1008.8 |
| 20260510003853 | 70 | 256 | 0.0 | 0.0 | 0.00 | 0.23 | 0.23 | 53 | 1008.6 |
| 20260510003349 | 70 | 223 | 0.0 | 1.0 | 0.00 | 0.23 | 0.23 | 53 | 1008.8 |
| 20260510002848 | 71 | 219 | 0.0 | 1.0 | 0.00 | 0.23 | 0.23 | 52 | 1008.7 |
| 20260510002346 | 71 | 180 | 1.0 | 1.0 | 0.00 | 0.23 | 0.23 | 51 | 1008.4 |
| 20260510001842 | 71 | 184 | 0.0 | 2.0 | 0.00 | 0.23 | 0.23 | 51 | 1008.4 |
| 20260510001340 | 72 | 284 | 0.0 | 1.0 | 0.00 | 0.23 | 0.23 | 51 | 1008.3 |
| 20260510000836 | 72 | 216 | 0.0 | 0.0 | 0.00 | 0.23 | 0.23 | 50 | 1008.4 |
| 20260510000334 | 72 | 151 | 1.0 | 2.0 | 0.00 | 0.23 | 0.23 | 50 | 1008.1 |
| 20260509235830 | 72 | 155 | 0.0 | 1.0 | 0.00 | 0.23 | 0.23 | 49 | 1008.3 |
| 20260509235327 | 73 | 155 | 2.0 | 4.0 | 0.00 | 0.23 | 0.23 | 48 | 1008.2 |
| 20260509234823 | 73 | 218 | 0.0 | 1.0 | 0.00 | 0.23 | 0.23 | 49 | 1008.2 |
| 20260509234319 | 73 | 240 | 0.0 | 0.0 | 0.00 | 0.23 | 0.23 | 48 | 1008.1 |
| 20260509233818 | 73 | 236 | 2.0 | 3.0 | 0.00 | 0.23 | 0.23 | 47 | 1007.9 |
| 20260509233315 | 73 | 204 | 2.0 | 4.0 | 0.00 | 0.23 | 0.23 | 47 | 1008.1 |
| 20260509232811 | 73 | 285 | 1.0 | 4.0 | 0.00 | 0.23 | 0.23 | 48 | 1007.9 |
| 20260509232309 | 73 | 189 | 2.0 | 4.0 | 0.00 | 0.23 | 0.23 | 47 | 1007.8 |
| 20260509231805 | 74 | 187 | 2.0 | 4.0 | 0.00 | 0.23 | 0.23 | 47 | 1008.0 |
| 20260509231302 | 74 | 208 | 0.0 | 1.0 | 0.00 | 0.23 | 0.23 | 47 | 1007.7 |
| 20260509230759 | 74 | 177 | 4.0 | 6.0 | 0.00 | 0.23 | 0.23 | 46 | 1007.8 |
| 20260509230256 | 74 | 148 | 1.0 | 2.0 | 0.00 | 0.23 | 0.23 | 46 | 1007.8 |
| 20260509225751 | 74 | 192 | 2.0 | 4.0 | 0.00 | 0.23 | 0.23 | 46 | 1007.8 |
| 20260509225248 | 74 | 211 | 1.0 | 3.0 | 0.00 | 0.23 | 0.23 | 48 | 1007.6 |
| 20260509224743 | 74 | 195 | 1.0 | 6.0 | 0.00 | 0.23 | 0.23 | 46 | 1007.8 |
| 20260509224241 | 74 | 181 | 3.0 | 6.0 | 0.00 | 0.23 | 0.23 | 46 | 1007.8 |
| 20260509223737 | 74 | 197 | 2.0 | 4.0 | 0.00 | 0.23 | 0.23 | 47 | 1007.7 |
| 20260509223235 | 74 | 202 | 2.0 | 2.0 | 0.00 | 0.23 | 0.23 | 48 | 1007.7 |
| 20260509222731 | 74 | 252 | 2.0 | 6.0 | 0.00 | 0.23 | 0.23 | 48 | 1007.7 |
| 20260509222226 | 74 | 195 | 2.0 | 6.0 | 0.00 | 0.23 | 0.23 | 48 | 1007.7 |
| 20260509221722 | 74 | 220 | 5.0 | 7.0 | 0.00 | 0.23 | 0.23 | 49 | 1007.6 |
| 20260509221219 | 75 | 178 | 1.0 | 7.0 | 0.00 | 0.23 | 0.23 | 49 | 1007.6 |
| 20260509220715 | 75 | 177 | 1.0 | 2.0 | 0.00 | 0.23 | 0.23 | 47 | 1007.9 |
| 20260509220212 | 75 | 300 | 0.0 | 2.0 | 0.00 | 0.23 | 0.23 | 48 | 1007.7 |
| 20260509215707 | 75 | 267 | 1.0 | 11.0 | 0.00 | 0.23 | 0.23 | 47 | 1007.7 |
| 20260509215204 | 75 | 163 | 2.0 | 4.0 | 0.00 | 0.23 | 0.23 | 47 | 1007.9 |
| 20260509214701 | 74 | 168 | 2.0 | 3.0 | 0.00 | 0.23 | 0.23 | 47 | 1007.7 |
| 20260509214158 | 74 | 157 | 6.0 | 8.0 | 0.00 | 0.23 | 0.23 | 48 | 1007.8 |
| 20260509213655 | 75 | 307 | 4.0 | 10.0 | 0.00 | 0.23 | 0.23 | 48 | 1007.9 |
| 20260509213150 | 74 | 191 | 6.0 | 10.0 | 0.00 | 0.23 | 0.23 | 49 | 1007.7 |
| 20260509212648 | 74 | 223 | 3.0 | 4.0 | 0.00 | 0.23 | 0.23 | 46 | 1007.9 |
| 20260509212145 | 75 | 206 | 1.0 | 8.0 | 0.00 | 0.23 | 0.23 | 46 | 1007.9 |
| 20260509211641 | 75 | 202 | 6.0 | 9.0 | 0.00 | 0.23 | 0.23 | 47 | 1007.9 |
| 20260509211138 | 76 | 254 | 2.0 | 6.0 | 0.00 | 0.23 | 0.23 | 46 | 1008.0 |
| 20260509210635 | 75 | 198 | 2.0 | 8.0 | 0.00 | 0.23 | 0.23 | 45 | 1007.8 |
| 20260509210132 | 75 | 188 | 3.0 | 7.0 | 0.00 | 0.23 | 0.23 | 47 | 1007.9 |
| 20260509205626 | 76 | 241 | 0.0 | 4.0 | 0.00 | 0.23 | 0.23 | 47 | 1007.9 |
| 20260509205121 | 75 | 203 | 0.0 | 4.0 | 0.00 | 0.23 | 0.23 | 50 | 1008.0 |
| 20260509204617 | 75 | 259 | 2.0 | 3.0 | 0.00 | 0.23 | 0.23 | 47 | 1008.1 |
| 20260509204114 | 75 | 197 | 2.0 | 8.0 | 0.00 | 0.23 | 0.23 | 49 | 1008.1 |
| 20260509203610 | 74 | 167 | 4.0 | 6.0 | 0.00 | 0.23 | 0.23 | 50 | 1008.0 |
| 20260509203109 | 74 | 159 | 4.0 | 6.0 | 0.00 | 0.23 | 0.23 | 51 | 1008.1 |
| 20260509202609 | 74 | 250 | 4.0 | 6.0 | 0.00 | 0.23 | 0.23 | 48 | 1008.1 |
| 20260509202104 | 75 | 203 | 5.0 | 7.0 | 0.00 | 0.23 | 0.23 | 50 | 1008.3 |
| 20260509201604 | 75 | 187 | 2.0 | 4.0 | 0.00 | 0.23 | 0.23 | 51 | 1008.2 |
| 20260509201103 | 75 | 207 | 3.0 | 4.0 | 0.00 | 0.23 | 0.23 | 50 | 1008.4 |
| 20260509200603 | 74 | 218 | 1.0 | 4.0 | 0.00 | 0.23 | 0.23 | 50 | 1008.5 |
| 20260509200059 | 73 | 201 | 4.0 | 8.0 | 0.00 | 0.23 | 0.23 | 52 | 1008.3 |
| 20260509195554 | 74 | 191 | 2.0 | 3.0 | 0.00 | 0.23 | 0.23 | 50 | 1008.4 |
| 20260509195050 | 74 | 211 | 1.0 | 4.0 | 0.00 | 0.23 | 0.23 | 51 | 1008.4 |
| 20260509194549 | 72 | 171 | 4.0 | 8.0 | 0.00 | 0.23 | 0.23 | 52 | 1008.5 |
| 20260509194047 | 72 | 202 | 4.0 | 8.0 | 0.00 | 0.23 | 0.23 | 57 | 1008.6 |
| 20260509193542 | 72 | 204 | 3.0 | 8.0 | 0.00 | 0.23 | 0.23 | 54 | 1008.9 |
| 20260509193039 | 72 | 297 | 3.0 | 3.0 | 0.00 | 0.23 | 0.23 | 53 | 1008.8 |
| 20260509192536 | 73 | 190 | 4.0 | 9.0 | 0.00 | 0.23 | 0.23 | 55 | 1008.7 |
| 20260509192031 | 71 | 184 | 2.0 | 8.0 | 0.00 | 0.23 | 0.23 | 56 | 1008.6 |
| 20260509191525 | 71 | 208 | 2.0 | 10.0 | 0.00 | 0.23 | 0.23 | 58 | 1008.9 |
| 20260509191021 | 72 | 138 | 6.0 | 7.0 | 0.00 | 0.23 | 0.23 | 58 | 1008.9 |
| 20260509190518 | 72 | 177 | 4.0 | 4.0 | 0.00 | 0.23 | 0.23 | 56 | 1009.0 |
| 20260509190017 | 72 | 183 | 4.0 | 7.0 | 0.00 | 0.23 | 0.23 | 58 | 1009.0 |
| 20260509185513 | 72 | 261 | 4.0 | 7.0 | 0.00 | 0.23 | 0.23 | 56 | 1009.0 |
| 20260509185009 | 72 | 285 | 2.0 | 3.0 | 0.00 | 0.23 | 0.23 | 57 | 1009.0 |
| 20260509184509 | 72 | 215 | 2.0 | 4.0 | 0.00 | 0.23 | 0.23 | 57 | 1009.0 |
| 20260509184004 | 71 | 178 | 0.0 | 6.0 | 0.00 | 0.23 | 0.23 | 61 | 1009.0 |
| 20260509183459 | 72 | 301 | 2.0 | 2.0 | 0.00 | 0.23 | 0.23 | 60 | 1009.0 |
| 20260509182955 | 71 | 294 | 1.0 | 3.0 | 0.00 | 0.23 | 0.23 | 60 | 1009.0 |
| 20260509182451 | 71 | 218 | 1.0 | 2.0 | 0.00 | 0.23 | 0.23 | 61 | 1009.0 |
| 20260509181949 | 71 | 182 | 0.0 | 3.0 | 0.00 | 0.23 | 0.23 | 62 | 1009.1 |
| 20260509181447 | 71 | 169 | 3.0 | 4.0 | 0.00 | 0.23 | 0.23 | 62 | 1009.0 |
| 20260509180944 | 71 | 285 | 1.0 | 3.0 | 0.00 | 0.23 | 0.23 | 62 | 1009.0 |
| 20260509180439 | 69 | 152 | 1.0 | 2.0 | 0.00 | 0.23 | 0.23 | 64 | 1009.1 |
| 20260509175937 | 68 | 203 | 1.0 | 3.0 | 0.00 | 0.23 | 0.23 | 65 | 1009.2 |
| 20260509175433 | 69 | 189 | 1.0 | 4.0 | 0.00 | 0.23 | 0.23 | 65 | 1009.1 |
| 20260509174929 | 69 | 192 | 1.0 | 3.0 | 0.00 | 0.23 | 0.23 | 64 | 1009.0 |
| 20260509174426 | 69 | 212 | 1.0 | 2.0 | 0.00 | 0.23 | 0.23 | 63 | 1009.2 |
| 20260509173922 | 70 | 191 | 4.0 | 8.0 | 0.00 | 0.23 | 0.23 | 64 | 1009.3 |
| 20260509173421 | 69 | 194 | 2.0 | 9.0 | 0.00 | 0.23 | 0.23 | 69 | 1009.1 |
| 20260509172918 | 67 | 185 | 2.0 | 4.0 | 0.00 | 0.23 | 0.23 | 68 | 1009.3 |
| 20260509172415 | 68 | 218 | 2.0 | 3.0 | 0.00 | 0.23 | 0.23 | 65 | 1009.3 |
| 20260509171911 | 68 | 192 | 1.0 | 11.0 | 0.00 | 0.23 | 0.23 | 68 | 1009.2 |
| 20260509171407 | 68 | 293 | 1.0 | 4.0 | 0.00 | 0.23 | 0.23 | 65 | 1009.2 |
| 20260509170903 | 67 | 211 | 0.0 | 4.0 | 0.00 | 0.23 | 0.23 | 65 | 1009.2 |
| 20260509170358 | 67 | 274 | 2.0 | 4.0 | 0.00 | 0.23 | 0.23 | 68 | 1009.2 |
| 20260509165854 | 66 | 277 | 1.0 | 4.0 | 0.00 | 0.23 | 0.23 | 69 | 1009.3 |
| 20260509165349 | 66 | 199 | 2.0 | 4.0 | 0.00 | 0.23 | 0.23 | 70 | 1009.5 |
| 20260509164845 | 67 | 186 | 1.0 | 4.0 | 0.00 | 0.23 | 0.23 | 67 | 1009.6 |
| 20260509164341 | 67 | 206 | 2.0 | 3.0 | 0.00 | 0.23 | 0.23 | 65 | 1009.5 |
| 20260509163837 | 66 | 281 | 1.0 | 2.0 | 0.00 | 0.23 | 0.23 | 72 | 1009.6 |
| 20260509163334 | 66 | 144 | 4.0 | 6.0 | 0.00 | 0.23 | 0.23 | 69 | 1009.8 |
| 20260509162834 | 66 | 151 | 3.0 | 4.0 | 0.00 | 0.23 | 0.23 | 69 | 1009.6 |
| 20260509162332 | 66 | 255 | 1.0 | 2.0 | 0.00 | 0.23 | 0.23 | 70 | 1009.5 |
| 20260509161828 | 66 | 190 | 1.0 | 3.0 | 0.00 | 0.23 | 0.23 | 72 | 1009.9 |
| 20260509161325 | 65 | 208 | 1.0 | 3.0 | 0.00 | 0.23 | 0.23 | 70 | 1009.4 |
| 20260509160820 | 66 | 287 | 1.0 | 2.0 | 0.00 | 0.23 | 0.23 | 73 | 1009.4 |
| 20260509160316 | 65 | 218 | 1.0 | 2.0 | 0.00 | 0.23 | 0.23 | 73 | 1009.3 |
| 20260509155812 | 65 | 242 | 0.0 | 2.0 | 0.00 | 0.23 | 0.23 | 73 | 1009.2 |
| 20260509155309 | 65 | 117 | 1.0 | 2.0 | 0.00 | 0.23 | 0.23 | 72 | 1009.1 |
| 20260509154805 | 65 | 173 | 6.0 | 8.0 | 0.00 | 0.23 | 0.23 | 72 | 1009.0 |
| 20260509154302 | 65 | 207 | 2.0 | 4.0 | 0.00 | 0.23 | 0.23 | 73 | 1009.2 |
| 20260509153759 | 65 | 200 | 2.0 | 4.0 | 0.00 | 0.23 | 0.23 | 73 | 1009.2 |
| 20260509153254 | 65 | 183 | 1.0 | 7.0 | 0.00 | 0.23 | 0.23 | 77 | 1009.0 |
| 20260509152751 | 65 | 273 | 1.0 | 4.0 | 0.00 | 0.23 | 0.23 | 75 | 1009.1 |
| 20260509152248 | 64 | 188 | 1.0 | 7.0 | 0.00 | 0.23 | 0.23 | 74 | 1009.1 |
| 20260509151745 | 63 | 213 | 1.0 | 3.0 | 0.00 | 0.23 | 0.23 | 81 | 1009.0 |
| 20260509151241 | 64 | 198 | 2.0 | 2.0 | 0.00 | 0.23 | 0.23 | 79 | 1009.1 |
| 20260509150740 | 63 | 243 | 4.0 | 4.0 | 0.00 | 0.23 | 0.23 | 79 | 1009.0 |
| 20260509150238 | 63 | 205 | 3.0 | 4.0 | 0.00 | 0.23 | 0.23 | 78 | 1009.2 |
| 20260509145735 | 62 | 179 | 3.0 | 3.0 | 0.00 | 0.23 | 0.23 | 82 | 1008.9 |
| 20260509145234 | 62 | 174 | 3.0 | 4.0 | 0.00 | 0.23 | 0.23 | 82 | 1008.8 |
| 20260509144731 | 62 | 197 | 1.0 | 4.0 | 0.00 | 0.23 | 0.23 | 84 | 1008.8 |
| 20260509144228 | 62 | 164 | 2.0 | 3.0 | 0.00 | 0.23 | 0.23 | 87 | 1008.8 |
| 20260509143725 | 62 | 182 | 5.0 | 7.0 | 0.00 | 0.23 | 0.23 | 82 | 1009.1 |
| 20260509143222 | 61 | 214 | 0.0 | 2.0 | 0.00 | 0.23 | 0.23 | 87 | 1008.9 |
| 20260509142718 | 60 | 184 | 3.0 | 4.0 | 0.00 | 0.23 | 0.23 | 87 | 1008.9 |
| 20260509142215 | 60 | 186 | 3.0 | 4.0 | 0.00 | 0.23 | 0.23 | 89 | 1008.8 |
| 20260509141710 | 60 | 162 | 3.0 | 4.0 | 0.00 | 0.23 | 0.23 | 88 | 1008.8 |
| 20260509141208 | 60 | 157 | 0.0 | 2.0 | 0.00 | 0.23 | 0.23 | 92 | 1008.9 |
| 20260509140704 | 59 | 172 | 0.0 | 3.0 | 0.00 | 0.23 | 0.23 | 92 | 1008.9 |
| 20260509140202 | 59 | 180 | 1.0 | 3.0 | 0.00 | 0.23 | 0.23 | 92 | 1008.9 |
| 20260509135659 | 59 | 163 | 0.0 | 1.0 | 0.00 | 0.23 | 0.23 | 94 | 1008.9 |
| 20260509135157 | 58 | 170 | 2.0 | 3.0 | 0.00 | 0.23 | 0.23 | 94 | 1009.1 |
| 20260509134653 | 58 | 214 | 0.0 | 1.0 | 0.00 | 0.23 | 0.23 | 97 | 1009.1 |
| 20260509134151 | 57 | 193 | 2.0 | 2.0 | 0.00 | 0.23 | 0.23 | 97 | 1009.0 |
| 20260509133648 | 57 | 205 | 0.0 | 2.0 | 0.00 | 0.23 | 0.23 | 97 | 1008.9 |
| 20260509133145 | 57 | 182 | 3.0 | 4.0 | 0.00 | 0.23 | 0.23 | 97 | 1008.9 |
| 20260509132643 | 57 | 209 | 0.0 | 1.0 | 0.00 | 0.23 | 0.23 | 98 | 1008.8 |
| 20260509132141 | 56 | 196 | 0.0 | 2.0 | 0.00 | 0.23 | 0.23 | 99 | 1009.0 |
| 20260509131637 | 56 | 195 | 1.0 | 1.0 | 0.00 | 0.23 | 0.23 | 99 | 1008.8 |
| 20260509131134 | 56 | 179 | 1.0 | 2.0 | 0.00 | 0.23 | 0.23 | 99 | 1008.8 |
| 20260509130630 | 56 | 172 | 2.0 | 2.0 | 0.00 | 0.23 | 0.23 | 99 | 1008.9 |
| 20260509130126 | 56 | 174 | 2.0 | 3.0 | 0.00 | 0.23 | 0.23 | 99 | 1008.5 |
| 20260509125623 | 56 | 178 | 0.0 | 2.0 | 0.00 | 0.23 | 0.23 | 99 | 1008.7 |
| 20260509125120 | 56 | 195 | 2.0 | 3.0 | 0.00 | 0.23 | 0.23 | 99 | 1008.7 |
| 20260509124616 | 56 | 164 | 0.0 | 2.0 | 0.00 | 0.23 | 0.23 | 99 | 1008.7 |
| 20260509124114 | 55 | 168 | 1.0 | 2.0 | 0.00 | 0.23 | 0.23 | 99 | 1008.6 |
| 20260509123612 | 55 | 177 | 2.0 | 3.0 | 0.00 | 0.23 | 0.23 | 99 | 1008.5 |
| 20260509123108 | 55 | 175 | 1.0 | 3.0 | 0.00 | 0.23 | 0.23 | 99 | 1008.4 |
| 20260509122604 | 55 | 181 | 4.0 | 4.0 | 0.00 | 0.23 | 0.23 | 99 | 1008.5 |
| 20260509122101 | 55 | 185 | 2.0 | 3.0 | 0.00 | 0.23 | 0.23 | 99 | 1008.5 |
| 20260509121558 | 55 | 176 | 2.0 | 2.0 | 0.00 | 0.23 | 0.23 | 99 | 1008.5 |
| 20260509121055 | 54 | 176 | 2.0 | 3.0 | 0.05 | 0.23 | 0.23 | 99 | 1008.7 |
| 20260509120553 | 54 | 171 | 1.0 | 3.0 | 0.05 | 0.23 | 0.23 | 99 | 1008.6 |
| 20260509120051 | 54 | 164 | 1.0 | 2.0 | 0.00 | 0.22 | 0.22 | 99 | 1008.6 |
| 20260509115548 | 54 | 157 | 1.0 | 1.0 | 0.00 | 0.22 | 0.22 | 99 | 1008.8 |
| 20260509115046 | 54 | 152 | 1.0 | 1.0 | 0.00 | 0.22 | 0.22 | 99 | 1008.7 |
| 20260509114544 | 54 | 180 | 1.0 | 1.0 | 0.00 | 0.22 | 0.22 | 99 | 1008.9 |
| 20260509114042 | 54 | 185 | 0.0 | 1.0 | 0.00 | 0.22 | 0.22 | 99 | 1008.7 |
| 20260509113540 | 54 | 180 | 0.0 | 1.0 | 0.00 | 0.22 | 0.22 | 99 | 1008.7 |
| 20260509113038 | 54 | 179 | 0.0 | 1.0 | 0.00 | 0.22 | 0.22 | 99 | 1008.4 |
| 20260509112534 | 54 | 178 | 1.0 | 2.0 | 0.00 | 0.22 | 0.22 | 99 | 1008.5 |
| 20260509112031 | 54 | 178 | 1.0 | 2.0 | 0.00 | 0.22 | 0.22 | 99 | 1008.3 |
| 20260509111528 | 54 | 178 | 1.0 | 2.0 | 0.00 | 0.22 | 0.22 | 99 | 1008.2 |
| 20260509111025 | 54 | 177 | 1.0 | 2.0 | 0.00 | 0.22 | 0.22 | 99 | 1008.1 |
| 20260509110522 | 54 | 177 | 0.0 | 0.0 | 0.00 | 0.22 | 0.22 | 99 | 1008.2 |
| 20260509110019 | 54 | 177 | 0.0 | 0.0 | 0.00 | 0.22 | 0.22 | 99 | 1008.2 |
| 20260509105517 | 54 | 177 | 0.0 | 0.0 | 0.07 | 0.22 | 0.22 | 99 | 1008.4 |
| 20260509105015 | 54 | 177 | 0.0 | 0.0 | 0.07 | 0.22 | 0.22 | 99 | 1008.7 |
| 20260509104511 | 54 | 177 | 0.0 | 0.0 | 0.00 | 0.21 | 0.21 | 99 | 1008.8 |
| 20260509104008 | 54 | 177 | 0.0 | 0.0 | 0.05 | 0.21 | 0.21 | 99 | 1008.7 |
| 20260509103506 | 54 | 177 | 0.0 | 0.0 | 0.05 | 0.21 | 0.21 | 99 | 1008.7 |
| 20260509103004 | 54 | 177 | 0.0 | 0.0 | 0.00 | 0.20 | 0.20 | 99 | 1008.8 |
| 20260509102501 | 54 | 177 | 0.0 | 0.0 | 0.07 | 0.20 | 0.20 | 99 | 1009.1 |
| 20260509101957 | 54 | 177 | 0.0 | 0.0 | 0.07 | 0.20 | 0.20 | 99 | 1009.0 |
| 20260509101454 | 54 | 177 | 0.0 | 0.0 | 0.05 | 0.19 | 0.19 | 99 | 1009.0 |
| 20260509100951 | 54 | 177 | 0.0 | 0.0 | 0.12 | 0.19 | 0.19 | 99 | 1009.0 |
| 20260509100448 | 54 | 177 | 0.0 | 0.0 | 0.07 | 0.18 | 0.18 | 99 | 1009.0 |
| 20260509095945 | 54 | 177 | 0.0 | 0.0 | 0.05 | 0.17 | 0.17 | 99 | 1009.1 |
| 20260509095442 | 54 | 177 | 0.0 | 1.0 | 0.05 | 0.17 | 0.17 | 99 | 1008.9 |
| 20260509094939 | 54 | 177 | 0.0 | 0.0 | 0.07 | 0.16 | 0.16 | 99 | 1009.0 |
| 20260509094435 | 54 | 178 | 0.0 | 0.0 | 0.07 | 0.16 | 0.16 | 99 | 1009.2 |
| 20260509093933 | 54 | 178 | 0.0 | 0.0 | 0.07 | 0.15 | 0.15 | 99 | 1009.2 |
| 20260509093430 | 54 | 178 | 0.0 | 0.0 | 0.07 | 0.15 | 0.15 | 99 | 1008.9 |
| 20260509092928 | 54 | 178 | 0.0 | 0.0 | 0.00 | 0.14 | 0.14 | 99 | 1009.1 |
| 20260509092426 | 54 | 178 | 0.0 | 0.0 | 0.00 | 0.14 | 0.14 | 99 | 1009.0 |
| 20260509091925 | 54 | 178 | 0.0 | 0.0 | 0.00 | 0.14 | 0.14 | 99 | 1009.2 |
| 20260509091421 | 54 | 178 | 0.0 | 0.0 | 0.05 | 0.14 | 0.14 | 99 | 1009.0 |
| 20260509090918 | 54 | 178 | 0.0 | 0.0 | 0.05 | 0.14 | 0.14 | 99 | 1009.3 |
| 20260509090415 | 54 | 178 | 0.0 | 0.0 | 0.00 | 0.13 | 0.13 | 99 | 1009.3 |
| 20260509085913 | 54 | 178 | 0.0 | 0.0 | 0.00 | 0.13 | 0.13 | 99 | 1009.2 |
| 20260509085410 | 54 | 178 | 0.0 | 0.0 | 0.07 | 0.13 | 0.13 | 99 | 1009.3 |
| 20260509084906 | 54 | 178 | 0.0 | 0.0 | 0.07 | 0.13 | 0.13 | 99 | 1009.5 |
| 20260509084403 | 54 | 178 | 0.0 | 0.0 | 0.00 | 0.12 | 0.12 | 99 | 1009.6 |
| 20260509083900 | 54 | 178 | 0.0 | 0.0 | 0.05 | 0.12 | 0.12 | 99 | 1009.8 |
| 20260509083357 | 54 | 178 | 0.0 | 0.0 | 0.05 | 0.12 | 0.12 | 99 | 1009.7 |
| 20260509082854 | 54 | 330 | 0.0 | 0.0 | 0.00 | 0.11 | 0.11 | 99 | 1009.6 |
| 20260509082351 | 54 | 330 | 0.0 | 0.0 | 0.07 | 0.11 | 0.11 | 99 | 1009.6 |
| 20260509081848 | 54 | 331 | 0.0 | 0.0 | 0.07 | 0.11 | 0.11 | 99 | 1009.7 |
| 20260509081345 | 54 | 330 | 0.0 | 0.0 | 0.05 | 0.10 | 0.10 | 99 | 1009.8 |
| 20260509080843 | 54 | 330 | 0.0 | 0.0 | 0.05 | 0.10 | 0.10 | 99 | 1009.7 |
| 20260509080341 | 54 | 330 | 0.0 | 0.0 | 0.00 | 0.09 | 0.09 | 99 | 1009.7 |
| 20260509075839 | 54 | 331 | 0.0 | 0.0 | 0.07 | 0.09 | 0.09 | 99 | 1009.6 |
| 20260509075335 | 54 | 331 | 0.0 | 0.0 | 0.00 | 0.08 | 0.08 | 99 | 1009.6 |
| 20260509074832 | 54 | 331 | 0.0 | 0.0 | 0.00 | 0.08 | 0.08 | 99 | 1009.6 |
| 20260509074330 | 54 | 331 | 0.0 | 0.0 | 0.05 | 0.08 | 0.08 | 99 | 1009.8 |
| 20260509073826 | 54 | 330 | 0.0 | 0.0 | 0.05 | 0.08 | 0.08 | 99 | 1009.5 |
| 20260509073323 | 54 | 331 | 0.0 | 0.0 | 0.00 | 0.07 | 0.07 | 99 | 1009.7 |
| 20260509072819 | 54 | 338 | 0.0 | 0.0 | 0.00 | 0.07 | 0.07 | 99 | 1009.6 |
| 20260509072316 | 54 | 338 | 0.0 | 0.0 | 0.00 | 0.07 | 0.07 | 99 | 1009.6 |
| 20260509071813 | 54 | 338 | 0.0 | 0.0 | 0.07 | 0.07 | 0.07 | 99 | 1009.7 |
| 20260509071310 | 54 | 338 | 0.0 | 0.0 | 0.07 | 0.07 | 0.07 | 99 | 1009.9 |
| 20260509070807 | 54 | 338 | 0.0 | 0.0 | 0.00 | 0.06 | 0.06 | 99 | 1010.0 |
| 20260509070303 | 54 | 338 | 0.0 | 0.0 | 0.05 | 0.06 | 0.06 | 99 | 1009.9 |
| 20260509065759 | 54 | 338 | 0.0 | 0.0 | 0.05 | 0.06 | 0.06 | 99 | 1010.1 |
| 20260509065256 | 54 | 337 | 0.0 | 0.0 | 0.00 | 0.05 | 0.05 | 99 | 1010.2 |
| 20260509064752 | 54 | 355 | 0.0 | 0.0 | 0.07 | 0.05 | 0.05 | 99 | 1010.2 |
| 20260509064250 | 54 | 355 | 0.0 | 0.0 | 0.07 | 0.05 | 0.05 | 99 | 1010.3 |
| 20260509063747 | 54 | 355 | 0.0 | 0.0 | 0.00 | 0.04 | 0.04 | 99 | 1010.4 |
| 20260509063243 | 54 | 355 | 0.0 | 0.0 | 0.00 | 0.04 | 0.04 | 99 | 1010.3 |
| 20260509062741 | 54 | 355 | 0.0 | 0.0 | 0.00 | 0.04 | 0.04 | 99 | 1010.3 |
| 20260509062238 | 54 | 355 | 0.0 | 0.0 | 0.05 | 0.04 | 0.04 | 99 | 1010.4 |
| 20260509061735 | 54 | 355 | 0.0 | 0.0 | 0.05 | 0.04 | 0.04 | 99 | 1010.5 |
| 20260509061233 | 54 | 356 | 0.0 | 0.0 | 0.00 | 0.03 | 0.03 | 99 | 1010.5 |
| 20260509060730 | 54 | 356 | 0.0 | 0.0 | 0.00 | 0.03 | 0.03 | 99 | 1010.4 |
| 20260509060226 | 54 | 356 | 0.0 | 0.0 | 0.00 | 0.03 | 0.03 | 99 | 1010.3 |
| 20260509055721 | 54 | 356 | 0.0 | 0.0 | 0.00 | 0.03 | 0.03 | 99 | 1010.2 |
| 20260509055218 | 54 | 356 | 0.0 | 0.0 | 0.00 | 0.03 | 0.03 | 99 | 1010.3 |
| 20260509054714 | 54 | 356 | 0.0 | 0.0 | 0.00 | 0.03 | 0.03 | 99 | 1010.1 |
| 20260509054212 | 54 | 356 | 0.0 | 0.0 | 0.07 | 0.03 | 0.03 | 99 | 1010.1 |
| 20260509053710 | 54 | 356 | 0.0 | 0.0 | 0.07 | 0.03 | 0.03 | 98 | 1010.2 |
| 20260509053207 | 54 | 356 | 0.0 | 0.0 | 0.00 | 0.02 | 0.02 | 98 | 1010.1 |
| 20260509052705 | 54 | 356 | 0.0 | 0.0 | 0.00 | 0.02 | 0.02 | 98 | 1010.4 |
| 20260509052202 | 54 | 356 | 0.0 | 0.0 | 0.00 | 0.02 | 0.02 | 98 | 1010.3 |
| 20260509051659 | 54 | 356 | 0.0 | 0.0 | 0.00 | 0.02 | 0.02 | 98 | 1010.3 |